owner,sensor,date,latitude,longitude,vertical_datum,sea_water_practical_salinity,qcFlag 
SCCF RECON,ioos:station:SCCF:56:1,2016-06-01T00:00:00Z,26.4645,-82.1044,1.77,26.81,1111122 
SCCF RECON,ioos:station:SCCF:56:1,2016-06-01T01:00:00Z,26.4645,-82.1044,1.867,26.84,1111122 
SCCF RECON,ioos:station:SCCF:56:1,2016-06-01T02:00:00Z,26.4645,-82.1044,1.91,26.82,1111122 
SCCF RECON,ioos:station:SCCF:56:1,2016-06-01T03:00:00Z,26.4645,-82.1044,1.92,26.86,1111122 
SCCF RECON,ioos:station:SCCF:56:1,2016-06-01T04:00:00Z,26.4645,-82.1044,1.86,26.8,1111122 
SCCF RECON,ioos:station:SCCF:56:1,2016-06-01T05:00:00Z,26.4645,-82.1044,1.8,26.82,1111122 
SCCF RECON,ioos:station:SCCF:56:1,2016-06-01T06:00:00Z,26.4645,-82.1044,1.74,26.96,1111122 
SCCF RECON,ioos:station:SCCF:56:1,2016-06-01T07:00:00Z,26.4645,-82.1044,1.68,27.06,1111122 
SCCF RECON,ioos:station:SCCF:56:1,2016-06-01T08:00:00Z,26.4645,-82.1044,1.61,27.3,1111122 
SCCF RECON,ioos:station:SCCF:56:1,2016-06-01T09:00:00Z,26.4645,-82.1044,1.58,27.41,1111122 
SCCF RECON,ioos:station:SCCF:56:1,2016-06-01T10:00:00Z,26.4645,-82.1044,1.658,27.2,1111122 
SCCF RECON,ioos:station:SCCF:56:1,2016-06-01T11:00:00Z,26.4645,-82.1044,1.79,26.88,1111122 
SCCF RECON,ioos:station:SCCF:56:1,2016-06-01T12:00:00Z,26.4645,-82.1044,1.9,26.64,1111122 
SCCF RECON,ioos:station:SCCF:56:1,2016-06-01T13:00:00Z,26.4645,-82.1044,2.0,26.62,1111122 
SCCF RECON,ioos:station:SCCF:56:1,2016-06-01T14:00:00Z,26.4645,-82.1044,2.07,26.67,1111122 
SCCF RECON,ioos:station:SCCF:56:1,2016-06-01T15:00:00Z,26.4645,-82.1044,2.09,26.72,1111122 
SCCF RECON,ioos:station:SCCF:56:1,2016-06-01T16:00:00Z,26.4645,-82.1044,2.04,26.76,1111122 
SCCF RECON,ioos:station:SCCF:56:1,2016-06-01T17:00:00Z,26.4645,-82.1044,1.92,26.82,1111122 
SCCF RECON,ioos:station:SCCF:56:1,2016-06-01T18:00:00Z,26.4645,-82.1044,1.79,27.02,1111122 
SCCF RECON,ioos:station:SCCF:56:1,2016-06-01T19:00:00Z,26.4645,-82.1044,1.65,27.32,1111122 
SCCF RECON,ioos:station:SCCF:56:1,2016-06-01T20:00:00Z,26.4645,-82.1044,1.52,27.55,1111122 
SCCF RECON,ioos:station:SCCF:56:1,2016-06-01T21:00:00Z,26.4645,-82.1044,1.42,27.76,1111122 
SCCF RECON,ioos:station:SCCF:56:1,2016-06-01T22:00:00Z,26.4645,-82.1044,1.38,27.94,1111122 
SCCF RECON,ioos:station:SCCF:56:1,2016-06-01T23:00:00Z,26.4645,-82.1044,1.47,27.88,1111122 
SCCF RECON,ioos:station:SCCF:56:1,2016-06-02T00:00:00Z,26.4645,-82.1044,1.621,27.22,1111122 
SCCF RECON,ioos:station:SCCF:56:1,2016-06-02T01:00:00Z,26.4645,-82.1044,1.75,26.67,1111122 
SCCF RECON,ioos:station:SCCF:56:1,2016-06-02T02:00:00Z,26.4645,-82.1044,1.81,26.58,1111122 
SCCF RECON,ioos:station:SCCF:56:1,2016-06-02T03:00:00Z,26.4645,-82.1044,1.89,26.67,1111122 
SCCF RECON,ioos:station:SCCF:56:1,2016-06-02T04:00:00Z,26.4645,-82.1044,1.94,26.72,1111122 
SCCF RECON,ioos:station:SCCF:56:1,2016-06-02T05:00:00Z,26.4645,-82.1044,1.93,26.7,1111122 
SCCF RECON,ioos:station:SCCF:56:1,2016-06-02T06:00:00Z,26.4645,-82.1044,1.827,26.69,1111122 
SCCF RECON,ioos:station:SCCF:56:1,2016-06-02T07:00:00Z,26.4645,-82.1044,1.74,26.83,1111122 
SCCF RECON,ioos:station:SCCF:56:1,2016-06-02T08:00:00Z,26.4645,-82.1044,1.67,26.95,1111122 
SCCF RECON,ioos:station:SCCF:56:1,2016-06-02T09:00:00Z,26.4645,-82.1044,1.61,27.24,1111122 
SCCF RECON,ioos:station:SCCF:56:1,2016-06-02T10:00:00Z,26.4645,-82.1044,1.62,27.3,1111122 
SCCF RECON,ioos:station:SCCF:56:1,2016-06-02T11:00:00Z,26.4645,-82.1044,1.72,26.65,1111122 
SCCF RECON,ioos:station:SCCF:56:1,2016-06-02T12:00:00Z,26.4645,-82.1044,1.87,26.57,1111122 
SCCF RECON,ioos:station:SCCF:56:1,2016-06-02T13:00:00Z,26.4645,-82.1044,1.99,26.59,1111122 
SCCF RECON,ioos:station:SCCF:56:1,2016-06-02T14:00:00Z,26.4645,-82.1044,2.08,26.69,1111122 
SCCF RECON,ioos:station:SCCF:56:1,2016-06-02T15:00:00Z,26.4645,-82.1044,2.13,26.81,1111122 
SCCF RECON,ioos:station:SCCF:56:1,2016-06-02T16:00:00Z,26.4645,-82.1044,2.13,26.95,1111122 
SCCF RECON,ioos:station:SCCF:56:1,2016-06-02T17:00:00Z,26.4645,-82.1044,2.025,26.9,1111122 
SCCF RECON,ioos:station:SCCF:56:1,2016-06-02T18:00:00Z,26.4645,-82.1044,1.88,26.94,1111122 
SCCF RECON,ioos:station:SCCF:56:1,2016-06-02T19:00:00Z,26.4645,-82.1044,1.74,27.09,1111122 
SCCF RECON,ioos:station:SCCF:56:1,2016-06-02T20:00:00Z,26.4645,-82.1044,1.586,27.31,1111122 
SCCF RECON,ioos:station:SCCF:56:1,2016-06-02T21:00:00Z,26.4645,-82.1044,1.44,27.53,1111122 
SCCF RECON,ioos:station:SCCF:56:1,2016-06-02T22:00:00Z,26.4645,-82.1044,1.34,27.75,1111122 
SCCF RECON,ioos:station:SCCF:56:1,2016-06-02T23:00:00Z,26.4645,-82.1044,1.3,27.96,1111122 
SCCF RECON,ioos:station:SCCF:56:1,2016-06-03T00:00:00Z,26.4645,-82.1044,1.431,27.79,1111122 
SCCF RECON,ioos:station:SCCF:56:1,2016-06-03T01:00:00Z,26.4645,-82.1044,1.62,27.36,1111122 
SCCF RECON,ioos:station:SCCF:56:1,2016-06-03T02:00:00Z,26.4645,-82.1044,1.78,27.1,1111122 
SCCF RECON,ioos:station:SCCF:56:1,2016-06-03T03:00:00Z,26.4645,-82.1044,1.89,27.12,1111122 
SCCF RECON,ioos:station:SCCF:56:1,2016-06-03T04:00:00Z,26.4645,-82.1044,1.98,27.04,1111122 
SCCF RECON,ioos:station:SCCF:56:1,2016-06-03T05:00:00Z,26.4645,-82.1044,2.01,26.85,1111122 
SCCF RECON,ioos:station:SCCF:56:1,2016-06-03T06:00:00Z,26.4645,-82.1044,1.96,26.89,1111122 
SCCF RECON,ioos:station:SCCF:56:1,2016-06-03T07:00:00Z,26.4645,-82.1044,1.86,27.01,1111122 
SCCF RECON,ioos:station:SCCF:56:1,2016-06-03T08:00:00Z,26.4645,-82.1044,1.79,27.17,1111122 
SCCF RECON,ioos:station:SCCF:56:1,2016-06-03T09:00:00Z,26.4645,-82.1044,1.75,27.25,1111122 
SCCF RECON,ioos:station:SCCF:56:1,2016-06-03T10:00:00Z,26.4645,-82.1044,1.68,27.35,1111122 
SCCF RECON,ioos:station:SCCF:56:1,2016-06-03T11:00:00Z,26.4645,-82.1044,1.69,27.37,1111122 
SCCF RECON,ioos:station:SCCF:56:1,2016-06-03T12:00:00Z,26.4645,-82.1044,1.83,27.2,1111122 
SCCF RECON,ioos:station:SCCF:56:1,2016-06-03T13:00:00Z,26.4645,-82.1044,1.97,26.98,1111122 
SCCF RECON,ioos:station:SCCF:56:1,2016-06-03T14:00:00Z,26.4645,-82.1044,2.06,26.88,1111122 
SCCF RECON,ioos:station:SCCF:56:1,2016-06-03T15:00:00Z,26.4645,-82.1044,2.122,26.86,1111122 
SCCF RECON,ioos:station:SCCF:56:1,2016-06-03T16:00:00Z,26.4645,-82.1044,2.16,26.91,1111122 
SCCF RECON,ioos:station:SCCF:56:1,2016-06-03T17:00:00Z,26.4645,-82.1044,2.14,26.95,1111122 
SCCF RECON,ioos:station:SCCF:56:1,2016-06-03T18:00:00Z,26.4645,-82.1044,2.033,26.99,1111122 
SCCF RECON,ioos:station:SCCF:56:1,2016-06-03T19:00:00Z,26.4645,-82.1044,1.867,27.1,1111122 
SCCF RECON,ioos:station:SCCF:56:1,2016-06-03T20:00:00Z,26.4645,-82.1044,1.71,27.27,1111122 
SCCF RECON,ioos:station:SCCF:56:1,2016-06-03T21:00:00Z,26.4645,-82.1044,1.56,27.47,1111122 
SCCF RECON,ioos:station:SCCF:56:1,2016-06-03T22:00:00Z,26.4645,-82.1044,1.42,27.66,1111122 
SCCF RECON,ioos:station:SCCF:56:1,2016-06-03T23:00:00Z,26.4645,-82.1044,1.32,27.91,1111122 
SCCF RECON,ioos:station:SCCF:56:1,2016-06-04T00:00:00Z,26.4645,-82.1044,1.344,28.02,1111122 
SCCF RECON,ioos:station:SCCF:56:1,2016-06-04T01:00:00Z,26.4645,-82.1044,1.351,28.07,1111122 
SCCF RECON,ioos:station:SCCF:56:1,2016-06-04T02:00:00Z,26.4645,-82.1044,1.541,27.74,1111122 
SCCF RECON,ioos:station:SCCF:56:1,2016-06-04T03:00:00Z,26.4645,-82.1044,1.7,27.37,1111122 
SCCF RECON,ioos:station:SCCF:56:1,2016-06-04T04:00:00Z,26.4645,-82.1044,1.85,27.22,1111122 
SCCF RECON,ioos:station:SCCF:56:1,2016-06-04T05:00:00Z,26.4645,-82.1044,1.93,27.12,1111122 
SCCF RECON,ioos:station:SCCF:56:1,2016-06-04T06:00:00Z,26.4645,-82.1044,1.99,27.04,1111122 
SCCF RECON,ioos:station:SCCF:56:1,2016-06-04T07:00:00Z,26.4645,-82.1044,1.95,27.03,1111122 
SCCF RECON,ioos:station:SCCF:56:1,2016-06-04T08:00:00Z,26.4645,-82.1044,1.86,27.18,1111122 
SCCF RECON,ioos:station:SCCF:56:1,2016-06-04T09:00:00Z,26.4645,-82.1044,1.79,27.28,1111122 
SCCF RECON,ioos:station:SCCF:56:1,2016-06-04T10:00:00Z,26.4645,-82.1044,1.69,27.47,1111122 
SCCF RECON,ioos:station:SCCF:56:1,2016-06-04T11:00:00Z,26.4645,-82.1044,1.65,27.58,1111122 
SCCF RECON,ioos:station:SCCF:56:1,2016-06-04T12:00:00Z,26.4645,-82.1044,1.681,27.6,1111122 
SCCF RECON,ioos:station:SCCF:56:1,2016-06-04T13:00:00Z,26.4645,-82.1044,1.86,27.07,1111122 
SCCF RECON,ioos:station:SCCF:56:1,2016-06-04T14:00:00Z,26.4645,-82.1044,2.01,26.86,1111122 
SCCF RECON,ioos:station:SCCF:56:1,2016-06-04T15:00:00Z,26.4645,-82.1044,2.11,26.77,1111122 
SCCF RECON,ioos:station:SCCF:56:1,2016-06-04T16:00:00Z,26.4645,-82.1044,2.17,26.68,1111122 
SCCF RECON,ioos:station:SCCF:56:1,2016-06-04T17:00:00Z,26.4645,-82.1044,2.2,26.43,1111122 
SCCF RECON,ioos:station:SCCF:56:1,2016-06-04T18:00:00Z,26.4645,-82.1044,2.14,26.66,1111122 
SCCF RECON,ioos:station:SCCF:56:1,2016-06-04T19:00:00Z,26.4645,-82.1044,2.0,26.59,1111122 
SCCF RECON,ioos:station:SCCF:56:1,2016-06-04T20:00:00Z,26.4645,-82.1044,1.831,26.82,1111122 
SCCF RECON,ioos:station:SCCF:56:1,2016-06-04T21:00:00Z,26.4645,-82.1044,1.673,27.19,1111122 
SCCF RECON,ioos:station:SCCF:56:1,2016-06-04T22:00:00Z,26.4645,-82.1044,1.518,27.44,1111122 
SCCF RECON,ioos:station:SCCF:56:1,2016-06-04T23:00:00Z,26.4645,-82.1044,1.39,27.65,1111122 
SCCF RECON,ioos:station:SCCF:56:1,2016-06-05T00:00:00Z,26.4645,-82.1044,1.26,27.92,1111122 
SCCF RECON,ioos:station:SCCF:56:1,2016-06-05T01:00:00Z,26.4645,-82.1044,1.23,28.1,1111122 
SCCF RECON,ioos:station:SCCF:56:1,2016-06-05T02:00:00Z,26.4645,-82.1044,1.397,27.22,1111122 
SCCF RECON,ioos:station:SCCF:56:1,2016-06-05T03:00:00Z,26.4645,-82.1044,1.6,27.45,1111122 
SCCF RECON,ioos:station:SCCF:56:1,2016-06-05T04:00:00Z,26.4645,-82.1044,1.738,27.25,1111122 
SCCF RECON,ioos:station:SCCF:56:1,2016-06-05T05:00:00Z,26.4645,-82.1044,1.86,27.22,1111122 
SCCF RECON,ioos:station:SCCF:56:1,2016-06-05T06:00:00Z,26.4645,-82.1044,1.95,27.17,1111122 
SCCF RECON,ioos:station:SCCF:56:1,2016-06-05T07:00:00Z,26.4645,-82.1044,1.96,27.05,1111122 
SCCF RECON,ioos:station:SCCF:56:1,2016-06-05T08:00:00Z,26.4645,-82.1044,1.91,27.23,1111122 
SCCF RECON,ioos:station:SCCF:56:1,2016-06-05T09:00:00Z,26.4645,-82.1044,1.799,27.15,1111122 
SCCF RECON,ioos:station:SCCF:56:1,2016-06-05T10:00:00Z,26.4645,-82.1044,1.76,27.29,1111122 
SCCF RECON,ioos:station:SCCF:56:1,2016-06-05T11:00:00Z,26.4645,-82.1044,1.75,27.32,1111122 
SCCF RECON,ioos:station:SCCF:56:1,2016-06-05T12:00:00Z,26.4645,-82.1044,1.741,27.33,1111122 
SCCF RECON,ioos:station:SCCF:56:1,2016-06-05T13:00:00Z,26.4645,-82.1044,1.84,27.27,1111122 
SCCF RECON,ioos:station:SCCF:56:1,2016-06-05T14:00:00Z,26.4645,-82.1044,1.98,27.22,1111122 
SCCF RECON,ioos:station:SCCF:56:1,2016-06-05T15:00:00Z,26.4645,-82.1044,2.1,27.08,1111122 
SCCF RECON,ioos:station:SCCF:56:1,2016-06-05T16:00:00Z,26.4645,-82.1044,2.206,27.03,1111122 
SCCF RECON,ioos:station:SCCF:56:1,2016-06-05T17:00:00Z,26.4645,-82.1044,2.272,26.99,1111122 
SCCF RECON,ioos:station:SCCF:56:1,2016-06-05T18:00:00Z,26.4645,-82.1044,2.22,27.06,1111122 
SCCF RECON,ioos:station:SCCF:56:1,2016-06-05T19:00:00Z,26.4645,-82.1044,2.19,27.03,1111122 
SCCF RECON,ioos:station:SCCF:56:1,2016-06-05T20:00:00Z,26.4645,-82.1044,2.08,26.98,1111122 
SCCF RECON,ioos:station:SCCF:56:1,2016-06-05T21:00:00Z,26.4645,-82.1044,1.897,27.05,1111122 
SCCF RECON,ioos:station:SCCF:56:1,2016-06-05T22:00:00Z,26.4645,-82.1044,1.752,27.18,1111122 
SCCF RECON,ioos:station:SCCF:56:1,2016-06-05T23:00:00Z,26.4645,-82.1044,1.58,27.35,1111122 
SCCF RECON,ioos:station:SCCF:56:1,2016-06-06T00:00:00Z,26.4645,-82.1044,1.463,27.5,1111122 
SCCF RECON,ioos:station:SCCF:56:1,2016-06-06T01:00:00Z,26.4645,-82.1044,1.36,27.53,1111122 
SCCF RECON,ioos:station:SCCF:56:1,2016-06-06T02:00:00Z,26.4645,-82.1044,1.32,27.65,1111122 
SCCF RECON,ioos:station:SCCF:56:1,2016-06-06T03:00:00Z,26.4645,-82.1044,1.496,27.54,1111122 
SCCF RECON,ioos:station:SCCF:56:1,2016-06-06T04:00:00Z,26.4645,-82.1044,1.7,28.24,1111122 
SCCF RECON,ioos:station:SCCF:56:1,2016-06-06T05:00:00Z,26.4645,-82.1044,1.86,28.57,1111122 
SCCF RECON,ioos:station:SCCF:56:1,2016-06-06T06:00:00Z,26.4645,-82.1044,2.02,28.6,1111122 
SCCF RECON,ioos:station:SCCF:56:1,2016-06-06T07:00:00Z,26.4645,-82.1044,2.06,29.12,1111122 
SCCF RECON,ioos:station:SCCF:56:1,2016-06-06T08:00:00Z,26.4645,-82.1044,2.1,29.33,1111122 
SCCF RECON,ioos:station:SCCF:56:1,2016-06-06T09:00:00Z,26.4645,-82.1044,1.98,28.89,1111122 
SCCF RECON,ioos:station:SCCF:56:1,2016-06-06T10:00:00Z,26.4645,-82.1044,1.95,28.81,1111122 
SCCF RECON,ioos:station:SCCF:56:1,2016-06-06T11:00:00Z,26.4645,-82.1044,1.93,28.6,1111122 
SCCF RECON,ioos:station:SCCF:56:1,2016-06-06T12:00:00Z,26.4645,-82.1044,1.89,28.53,1111122 
SCCF RECON,ioos:station:SCCF:56:1,2016-06-06T13:00:00Z,26.4645,-82.1044,1.87,28.48,1111122 
SCCF RECON,ioos:station:SCCF:56:1,2016-06-06T14:00:00Z,26.4645,-82.1044,1.95,29.09,1111122 
SCCF RECON,ioos:station:SCCF:56:1,2016-06-06T15:00:00Z,26.4645,-82.1044,2.07,29.47,1111122 
SCCF RECON,ioos:station:SCCF:56:1,2016-06-06T16:00:00Z,26.4645,-82.1044,2.22,30.37,1111122 
SCCF RECON,ioos:station:SCCF:56:1,2016-06-06T17:00:00Z,26.4645,-82.1044,2.31,30.42,1111122 
SCCF RECON,ioos:station:SCCF:56:1,2016-06-06T18:00:00Z,26.4645,-82.1044,2.33,31.03,1111122 
SCCF RECON,ioos:station:SCCF:56:1,2016-06-06T19:00:00Z,26.4645,-82.1044,2.34,32.14,1111122 
SCCF RECON,ioos:station:SCCF:56:1,2016-06-06T20:00:00Z,26.4645,-82.1044,2.282,30.91,1111122 
SCCF RECON,ioos:station:SCCF:56:1,2016-06-06T21:00:00Z,26.4645,-82.1044,2.261,31.07,1111122 
SCCF RECON,ioos:station:SCCF:56:1,2016-06-06T22:00:00Z,26.4645,-82.1044,2.138,31.11,1111122 
SCCF RECON,ioos:station:SCCF:56:1,2016-06-06T23:00:00Z,26.4645,-82.1044,1.913,29.86,1111122 
SCCF RECON,ioos:station:SCCF:56:1,2016-06-07T00:00:00Z,26.4645,-82.1044,1.74,29.17,1111122 
SCCF RECON,ioos:station:SCCF:56:1,2016-06-07T01:00:00Z,26.4645,-82.1044,1.627,28.81,1111122 
SCCF RECON,ioos:station:SCCF:56:1,2016-06-07T02:00:00Z,26.4645,-82.1044,1.567,28.43,1111122 
SCCF RECON,ioos:station:SCCF:56:1,2016-06-07T03:00:00Z,26.4645,-82.1044,1.55,28.29,1111122 
SCCF RECON,ioos:station:SCCF:56:1,2016-06-07T04:00:00Z,26.4645,-82.1044,1.692,28.97,1111122 
SCCF RECON,ioos:station:SCCF:56:1,2016-06-07T05:00:00Z,26.4645,-82.1044,1.86,33.6,1111122 
SCCF RECON,ioos:station:SCCF:56:1,2016-06-07T06:00:00Z,26.4645,-82.1044,1.97,33.29,1111122 
SCCF RECON,ioos:station:SCCF:56:1,2016-06-07T07:00:00Z,26.4645,-82.1044,2.03,33.2,1111122 
SCCF RECON,ioos:station:SCCF:56:1,2016-06-07T08:00:00Z,26.4645,-82.1044,2.059,33.28,1111122 
SCCF RECON,ioos:station:SCCF:56:1,2016-06-07T09:00:00Z,26.4645,-82.1044,2.06,32.82,1111122 
SCCF RECON,ioos:station:SCCF:56:1,2016-06-07T10:00:00Z,26.4645,-82.1044,2.02,32.95,1111122 
SCCF RECON,ioos:station:SCCF:56:1,2016-06-07T11:00:00Z,26.4645,-82.1044,1.945,32.9,1111122 
SCCF RECON,ioos:station:SCCF:56:1,2016-06-07T12:00:00Z,26.4645,-82.1044,1.89,32.49,1111122 
SCCF RECON,ioos:station:SCCF:56:1,2016-06-07T13:00:00Z,26.4645,-82.1044,1.842,32.23,1111122 
SCCF RECON,ioos:station:SCCF:56:1,2016-06-07T14:00:00Z,26.4645,-82.1044,1.84,31.72,1111122 
SCCF RECON,ioos:station:SCCF:56:1,2016-06-07T15:00:00Z,26.4645,-82.1044,1.911,32.35,1111122 
SCCF RECON,ioos:station:SCCF:56:1,2016-06-07T16:00:00Z,26.4645,-82.1044,2.04,34.03,1111122 
SCCF RECON,ioos:station:SCCF:56:1,2016-06-07T17:00:00Z,26.4645,-82.1044,2.12,34.19,1111122 
SCCF RECON,ioos:station:SCCF:56:1,2016-06-07T18:00:00Z,26.4645,-82.1044,2.19,34.33,1111122 
SCCF RECON,ioos:station:SCCF:56:1,2016-06-07T19:00:00Z,26.4645,-82.1044,2.17,34.05,1111122 
SCCF RECON,ioos:station:SCCF:56:1,2016-06-07T20:00:00Z,26.4645,-82.1044,2.12,34.27,1111122 
SCCF RECON,ioos:station:SCCF:56:1,2016-06-07T21:00:00Z,26.4645,-82.1044,2.02,33.85,1111122 
SCCF RECON,ioos:station:SCCF:56:1,2016-06-07T22:00:00Z,26.4645,-82.1044,1.86,32.87,1111122 
SCCF RECON,ioos:station:SCCF:56:1,2016-06-07T23:00:00Z,26.4645,-82.1044,1.71,32.19,1111122 
SCCF RECON,ioos:station:SCCF:56:1,2016-06-08T00:00:00Z,26.4645,-82.1044,1.58,31.27,1111122 
SCCF RECON,ioos:station:SCCF:56:1,2016-06-08T01:00:00Z,26.4645,-82.1044,1.45,30.75,1111122 
SCCF RECON,ioos:station:SCCF:56:1,2016-06-08T02:00:00Z,26.4645,-82.1044,1.34,30.32,1111122 
SCCF RECON,ioos:station:SCCF:56:1,2016-06-08T03:00:00Z,26.4645,-82.1044,1.28,30.0,1111122 
SCCF RECON,ioos:station:SCCF:56:1,2016-06-08T04:00:00Z,26.4645,-82.1044,1.32,29.78,1111122 
SCCF RECON,ioos:station:SCCF:56:1,2016-06-08T05:00:00Z,26.4645,-82.1044,1.503,33.65,1111122 
SCCF RECON,ioos:station:SCCF:56:1,2016-06-08T06:00:00Z,26.4645,-82.1044,1.67,33.99,1111122 
SCCF RECON,ioos:station:SCCF:56:1,2016-06-08T07:00:00Z,26.4645,-82.1044,1.76,34.02,1111122 
SCCF RECON,ioos:station:SCCF:56:1,2016-06-08T08:00:00Z,26.4645,-82.1044,1.86,33.82,1111122 
SCCF RECON,ioos:station:SCCF:56:1,2016-06-08T09:00:00Z,26.4645,-82.1044,1.9,33.8,1111122 
SCCF RECON,ioos:station:SCCF:56:1,2016-06-08T10:00:00Z,26.4645,-82.1044,1.85,33.8,1111122 
SCCF RECON,ioos:station:SCCF:56:1,2016-06-08T11:00:00Z,26.4645,-82.1044,1.78,33.53,1111122 
SCCF RECON,ioos:station:SCCF:56:1,2016-06-08T12:00:00Z,26.4645,-82.1044,1.75,33.54,1111122 
SCCF RECON,ioos:station:SCCF:56:1,2016-06-08T13:00:00Z,26.4645,-82.1044,1.71,33.06,1111122 
SCCF RECON,ioos:station:SCCF:56:1,2016-06-08T14:00:00Z,26.4645,-82.1044,1.69,32.74,1111122 
SCCF RECON,ioos:station:SCCF:56:1,2016-06-08T15:00:00Z,26.4645,-82.1044,1.72,32.9,1111122 
SCCF RECON,ioos:station:SCCF:56:1,2016-06-08T16:00:00Z,26.4645,-82.1044,1.801,31.51,1111122 
SCCF RECON,ioos:station:SCCF:56:1,2016-06-08T17:00:00Z,26.4645,-82.1044,1.89,31.9,1111122 
SCCF RECON,ioos:station:SCCF:56:1,2016-06-08T18:00:00Z,26.4645,-82.1044,1.98,32.5,1111122 
SCCF RECON,ioos:station:SCCF:56:1,2016-06-08T19:00:00Z,26.4645,-82.1044,2.05,32.71,1111122 
SCCF RECON,ioos:station:SCCF:56:1,2016-06-08T20:00:00Z,26.4645,-82.1044,2.06,32.8,1111122 
SCCF RECON,ioos:station:SCCF:56:1,2016-06-08T21:00:00Z,26.4645,-82.1044,2.01,32.48,1111122 
SCCF RECON,ioos:station:SCCF:56:1,2016-06-08T22:00:00Z,26.4645,-82.1044,1.92,32.44,1111122 
SCCF RECON,ioos:station:SCCF:56:1,2016-06-08T23:00:00Z,26.4645,-82.1044,1.8,32.26,1111122 
SCCF RECON,ioos:station:SCCF:56:1,2016-06-09T00:00:00Z,26.4645,-82.1044,1.64,31.98,1111122 
SCCF RECON,ioos:station:SCCF:56:1,2016-06-09T01:00:00Z,26.4645,-82.1044,1.51,31.78,1111122 
SCCF RECON,ioos:station:SCCF:56:1,2016-06-09T02:00:00Z,26.4645,-82.1044,1.38,31.56,1111122 
SCCF RECON,ioos:station:SCCF:56:1,2016-06-09T03:00:00Z,26.4645,-82.1044,1.29,31.3,1111122 
SCCF RECON,ioos:station:SCCF:56:1,2016-06-09T04:00:00Z,26.4645,-82.1044,1.21,31.08,1111122 
SCCF RECON,ioos:station:SCCF:56:1,2016-06-09T05:00:00Z,26.4645,-82.1044,1.304,31.06,1111122 
SCCF RECON,ioos:station:SCCF:56:1,2016-06-09T06:00:00Z,26.4645,-82.1044,1.5,32.61,1111122 
SCCF RECON,ioos:station:SCCF:56:1,2016-06-09T07:00:00Z,26.4645,-82.1044,1.671,32.69,1111122 
SCCF RECON,ioos:station:SCCF:56:1,2016-06-09T08:00:00Z,26.4645,-82.1044,1.79,32.83,1111122 
SCCF RECON,ioos:station:SCCF:56:1,2016-06-09T09:00:00Z,26.4645,-82.1044,1.85,32.88,1111122 
SCCF RECON,ioos:station:SCCF:56:1,2016-06-09T10:00:00Z,26.4645,-82.1044,1.88,32.84,1111122 
SCCF RECON,ioos:station:SCCF:56:1,2016-06-09T11:00:00Z,26.4645,-82.1044,1.87,32.57,1111122 
SCCF RECON,ioos:station:SCCF:56:1,2016-06-09T12:00:00Z,26.4645,-82.1044,1.8,32.66,1111122 
SCCF RECON,ioos:station:SCCF:56:1,2016-06-09T13:00:00Z,26.4645,-82.1044,1.77,32.44,1111122 
SCCF RECON,ioos:station:SCCF:56:1,2016-06-09T14:00:00Z,26.4645,-82.1044,1.741,32.29,1111122 
SCCF RECON,ioos:station:SCCF:56:1,2016-06-09T15:00:00Z,26.4645,-82.1044,1.73,32.02,1111122 
SCCF RECON,ioos:station:SCCF:56:1,2016-06-09T16:00:00Z,26.4645,-82.1044,1.74,31.97,1111122 
SCCF RECON,ioos:station:SCCF:56:1,2016-06-09T17:00:00Z,26.4645,-82.1044,1.79,31.63,1111122 
SCCF RECON,ioos:station:SCCF:56:1,2016-06-09T18:00:00Z,26.4645,-82.1044,1.87,29.38,1111122 
SCCF RECON,ioos:station:SCCF:56:1,2016-06-09T19:00:00Z,26.4645,-82.1044,1.93,29.19,1111122 
SCCF RECON,ioos:station:SCCF:56:1,2016-06-09T20:00:00Z,26.4645,-82.1044,1.98,29.68,1111122 
SCCF RECON,ioos:station:SCCF:56:1,2016-06-09T21:00:00Z,26.4645,-82.1044,1.98,29.98,1111122 
SCCF RECON,ioos:station:SCCF:56:1,2016-06-09T22:00:00Z,26.4645,-82.1044,1.93,30.08,1111122 
SCCF RECON,ioos:station:SCCF:56:1,2016-06-09T23:00:00Z,26.4645,-82.1044,1.85,30.14,1111122 
SCCF RECON,ioos:station:SCCF:56:1,2016-06-10T00:00:00Z,26.4645,-82.1044,1.74,30.42,1111122 
SCCF RECON,ioos:station:SCCF:56:1,2016-06-10T01:00:00Z,26.4645,-82.1044,1.601,30.55,1111122 
SCCF RECON,ioos:station:SCCF:56:1,2016-06-10T02:00:00Z,26.4645,-82.1044,1.48,30.53,1111122 
SCCF RECON,ioos:station:SCCF:56:1,2016-06-10T03:00:00Z,26.4645,-82.1044,1.36,30.22,1111122 
SCCF RECON,ioos:station:SCCF:56:1,2016-06-10T04:00:00Z,26.4645,-82.1044,1.28,29.9,1111122 
SCCF RECON,ioos:station:SCCF:56:1,2016-06-10T05:00:00Z,26.4645,-82.1044,1.3,29.79,1111122 
SCCF RECON,ioos:station:SCCF:56:1,2016-06-10T06:00:00Z,26.4645,-82.1044,1.44,30.15,1111122 
SCCF RECON,ioos:station:SCCF:56:1,2016-06-10T07:00:00Z,26.4645,-82.1044,1.605,30.44,1111122 
SCCF RECON,ioos:station:SCCF:56:1,2016-06-10T08:00:00Z,26.4645,-82.1044,1.74,30.52,1111122 
SCCF RECON,ioos:station:SCCF:56:1,2016-06-10T09:00:00Z,26.4645,-82.1044,1.84,30.99,1111122 
SCCF RECON,ioos:station:SCCF:56:1,2016-06-10T10:00:00Z,26.4645,-82.1044,1.89,31.0,1111122 
SCCF RECON,ioos:station:SCCF:56:1,2016-06-10T11:00:00Z,26.4645,-82.1044,1.9,30.64,1111122 
SCCF RECON,ioos:station:SCCF:56:1,2016-06-10T12:00:00Z,26.4645,-82.1044,1.85,30.66,1111122 
SCCF RECON,ioos:station:SCCF:56:1,2016-06-10T13:00:00Z,26.4645,-82.1044,1.81,30.83,1111122 
SCCF RECON,ioos:station:SCCF:56:1,2016-06-10T14:00:00Z,26.4645,-82.1044,1.77,30.66,1111122 
SCCF RECON,ioos:station:SCCF:56:1,2016-06-10T15:00:00Z,26.4645,-82.1044,1.75,30.56,1111122 
SCCF RECON,ioos:station:SCCF:56:1,2016-06-10T16:00:00Z,26.4645,-82.1044,1.74,30.53,1111122 
SCCF RECON,ioos:station:SCCF:56:1,2016-06-10T17:00:00Z,26.4645,-82.1044,1.72,30.48,1111122 
SCCF RECON,ioos:station:SCCF:56:1,2016-06-10T18:00:00Z,26.4645,-82.1044,1.73,30.31,1111122 
SCCF RECON,ioos:station:SCCF:56:1,2016-06-10T19:00:00Z,26.4645,-82.1044,1.79,27.71,1111122 
SCCF RECON,ioos:station:SCCF:56:1,2016-06-10T20:00:00Z,26.4645,-82.1044,1.86,27.67,1111122 
SCCF RECON,ioos:station:SCCF:56:1,2016-06-10T21:00:00Z,26.4645,-82.1044,1.918,27.65,1111122 
SCCF RECON,ioos:station:SCCF:56:1,2016-06-10T22:00:00Z,26.4645,-82.1044,1.94,27.6,1111122 
SCCF RECON,ioos:station:SCCF:56:1,2016-06-10T23:00:00Z,26.4645,-82.1044,1.89,28.55,1111122 
SCCF RECON,ioos:station:SCCF:56:1,2016-06-11T00:00:00Z,26.4645,-82.1044,1.812,28.84,1111122 
SCCF RECON,ioos:station:SCCF:56:1,2016-06-11T01:00:00Z,26.4645,-82.1044,1.73,29.07,1111122 
SCCF RECON,ioos:station:SCCF:56:1,2016-06-11T02:00:00Z,26.4645,-82.1044,1.62,29.15,1111122 
SCCF RECON,ioos:station:SCCF:56:1,2016-06-11T03:00:00Z,26.4645,-82.1044,1.51,29.44,1111122 
SCCF RECON,ioos:station:SCCF:56:1,2016-06-11T04:00:00Z,26.4645,-82.1044,1.43,29.38,1111122 
SCCF RECON,ioos:station:SCCF:56:1,2016-06-11T05:00:00Z,26.4645,-82.1044,1.38,29.25,1111122 
SCCF RECON,ioos:station:SCCF:56:1,2016-06-11T06:00:00Z,26.4645,-82.1044,1.412,29.23,1111122 
SCCF RECON,ioos:station:SCCF:56:1,2016-06-11T07:00:00Z,26.4645,-82.1044,1.52,28.8,1111122 
SCCF RECON,ioos:station:SCCF:56:1,2016-06-11T08:00:00Z,26.4645,-82.1044,1.67,29.2,1111122 
SCCF RECON,ioos:station:SCCF:56:1,2016-06-11T09:00:00Z,26.4645,-82.1044,1.78,28.6,1111122 
SCCF RECON,ioos:station:SCCF:56:1,2016-06-11T10:00:00Z,26.4645,-82.1044,1.84,26.8,1111122 
SCCF RECON,ioos:station:SCCF:56:1,2016-06-11T11:00:00Z,26.4645,-82.1044,1.95,21.97,1111122 
SCCF RECON,ioos:station:SCCF:56:1,2016-06-11T12:00:00Z,26.4645,-82.1044,2.0,24.59,1111122 
SCCF RECON,ioos:station:SCCF:56:1,2016-06-11T13:00:00Z,26.4645,-82.1044,1.94,26.59,1111122 
SCCF RECON,ioos:station:SCCF:56:1,2016-06-11T14:00:00Z,26.4645,-82.1044,1.83,25.97,1111122 
SCCF RECON,ioos:station:SCCF:56:1,2016-06-11T15:00:00Z,26.4645,-82.1044,1.74,26.61,1111122 
SCCF RECON,ioos:station:SCCF:56:1,2016-06-11T16:00:00Z,26.4645,-82.1044,1.69,28.1,1111122 
SCCF RECON,ioos:station:SCCF:56:1,2016-06-11T17:00:00Z,26.4645,-82.1044,1.68,28.23,1111122 
SCCF RECON,ioos:station:SCCF:56:1,2016-06-11T18:00:00Z,26.4645,-82.1044,1.7,28.42,1111122 